Terminal Aerodrome Forecast
Issued by NWS

Home | Current Version | Previous Version | Text Only | Print | Product List | Glossary On
Versions: 1 2 3 4 5 6 7 8 9 10 11 12 13
000
FTUS43 KLSX 161100
TAFCPS
TAF
KCPS 161139Z 1612/1712 15008KT P6SM SCT250
     FM161600 16015G24KT P6SM BKN250
     FM170200 16006KT P6SM BKN250=

USA.gov is the U.S. government's official web portal to all federal, state and local government web resources and services.